Location: Wapato
(46.4478°N, 120.4212°W)
Time: 17:48:48
(UTC+00:00)

S-56A Canister/Altair - Pass Details

Date: 22 May 2026
Orbit: 632 x 2484 km, 38.9° (Epoch: 9 June)

Event Time Altitude Azimuth Distance (km) Brightness Sun altitude
Rises 06:24:00 0° 264° (W) 2,962 10.8 -19.8°
Reaches altitude 10° 06:26:45 10° 248° (WSW) 2,008 9.7 -20.0°
Enters shadow 06:28:38 18° 225° (SW) 1,552 8.9 -20.1°
